TG8ARF-18 Weather Reports


time (UTC)temp
F
wind
direction
speed
knots
gust
knots
rain 1hr
in
rain 24hr
in
rain mn
in
humidity
%
barometer
mb
20260503184724 71 211 5.2 3.5 0.01 0.00 0.00 68 1016.0
20260503183724 75 226 4.3 3.5 0.01 0.00 0.00 67 1016.0
20260503182723 73 226 4.3 3.5 0.00 0.00 0.00 67 1017.0
20260503181722 71 226 4.3 3.5 0.00 0.00 0.00 67 1017.0
20260503180722 75 223 3.5 4.3 0.00 0.00 0.00 64 1017.0
20260503175721 73 223 3.5 4.3 0.00 0.00 0.00 64 1017.0
20260503174721 71 223 3.5 4.3 0.00 0.00 0.00 64 1017.0
20260503173720 69 223 3.5 4.3 0.00 0.00 0.00 64 1017.0
20260503172719 69 223 3.5 4.3 0.00 0.00 0.00 64 1017.0
20260503171719 73 223 3.5 4.3 0.00 0.00 0.00 63 1017.0
20260503170718 71 223 3.5 4.3 0.00 0.00 0.00 63 1017.0
20260503150710 67 196 0.9 3.5 0.00 0.00 0.00 71 1017.0
20260503130704 60 53 3.5 4.3 0.00 0.00 0.00 86 1018.0
20260503110655 56 42 7.8 9.6 0.00 0.00 0.00 91 1018.0
20260503080644 59 52 3.5 2.6 0.00 0.00 0.00 89 1018.0
20260503072641 59 46 4.3 4.3 0.00 0.00 0.00 89 1019.0
20260503071641 57 46 5.2 4.3 0.00 0.00 0.00 89 1019.0
20260503070640 59 46 4.3 4.3 0.00 0.00 0.00 89 1019.0
20260503054635 59 46 4.3 3.5 0.00 0.00 0.00 86 1019.0
20260503053634 59 46 4.3 3.5 0.00 0.00 0.00 86 1019.0
20260503052634 57 46 5.2 3.5 0.00 0.00 0.00 86 1019.0
20260503051633 60 46 4.3 3.5 0.00 0.00 0.00 85 1019.0
20260503050632 60 46 4.3 3.5 0.00 0.00 0.00 85 1019.0
20260503045632 58 46 5.2 3.5 0.00 0.00 0.00 85 1019.0
20260503044631 60 46 4.3 3.5 0.00 0.00 0.00 85 1019.0
20260503043630 58 46 5.2 3.5 0.00 0.00 0.00 85 1019.0
20260503042630 63 54 4.3 3.5 0.00 0.00 0.00 85 1018.0
20260503041629 61 54 4.3 3.5 0.00 0.00 0.00 85 1018.0
20260503040628 61 54 4.3 3.5 0.00 0.00 0.00 85 1018.0
20260503035628 59 54 4.3 3.5 0.00 0.00 0.00 85 1018.0
20260503034627 63 51 3.5 2.6 0.00 0.00 0.00 86 1018.0
20260503033626 61 51 3.5 2.6 0.00 0.00 0.00 86 1018.0
20260503032626 59 51 3.5 2.6 0.00 0.00 0.00 86 1017.0
20260503031625 63 51 3.5 2.6 0.00 0.00 0.00 84 1017.0
20260503030624 61 51 3.5 2.6 0.00 0.00 0.00 84 1017.0
20260503025624 59 51 3.5 2.6 0.00 0.00 0.00 84 1017.0
20260503024623 63 51 3.5 3.5 0.00 0.00 0.00 87 1017.0
20260503023622 61 51 3.5 3.5 0.00 0.00 0.00 87 1017.0
20260503022622 59 51 3.5 3.5 0.00 0.00 0.00 87 1016.0
20260503021621 64 51 3.5 3.5 0.00 0.00 0.00 86 1016.0
20260503020620 62 51 3.5 3.5 0.00 0.00 0.00 86 1016.0
20260503015620 60 51 3.5 3.5 0.00 0.00 0.00 86 1016.0
20260503014619 64 39 2.6 0.9 0.00 0.00 0.00 88 1016.0
20260503013618 64 39 2.6 0.9 0.00 0.00 0.00 88 1016.0
20260503012618 62 39 2.6 1.7 0.00 0.00 0.00 88 1015.0
20260503011613 64 39 2.6 1.7 0.00 0.00 0.00 85 1015.0
20260503010612 64 39 2.6 1.7 0.00 0.00 0.00 85 1015.0
20260503005611 64 39 2.6 1.7 0.00 0.00 0.00 84 1015.0
20260503004611 64 39 2.6 1.7 0.00 0.00 0.00 84 1015.0
20260503003610 66 39 2.6 1.7 0.00 0.00 0.00 81 1015.0
20260503002610 64 276 0.0 1.7 0.00 0.00 0.00 81 1014.0
20260503001609 62 276 0.0 1.7 0.00 0.00 0.00 81 1014.0
20260503000608 65 276 0.0 1.7 0.00 0.00 0.00 80 1014.0
20260502235608 63 276 0.0 1.7 0.00 0.00 0.00 80 1014.0
20260502234607 66 276 0.0 1.7 0.00 0.00 0.00 80 1014.0
20260502233605 64 276 0.0 1.7 0.00 0.00 0.00 80 1014.0
20260502232605 67 244 2.6 2.6 0.00 0.00 0.00 80 1014.0
20260502231604 65 244 2.6 2.6 0.00 0.00 0.00 80 1014.0
20260502230604 67 244 2.6 2.6 0.00 0.00 0.00 80 1014.0
20260502225603 69 244 2.6 2.6 0.00 0.00 0.00 77 1014.0
20260502224602 71 244 2.6 2.6 0.00 0.00 0.00 78 1014.0
20260502223602 71 244 2.6 2.6 0.00 0.00 0.00 78 1014.0
20260502222601 71 222 6.1 2.6 0.00 0.00 0.00 75 1013.0
20260502221600 71 222 6.1 2.6 0.00 0.00 0.00 72 1013.0
20260502220600 71 222 6.1 2.6 0.00 0.00 0.00 72 1013.0
20260502215559 73 222 6.1 2.6 0.00 0.00 0.00 70 1013.0
20260502214558 75 222 6.1 2.6 0.00 0.00 0.00 69 1013.0
20260502213558 75 222 6.1 2.6 0.00 0.00 0.00 69 1013.0
20260502212557 75 222 7.0 3.5 0.00 0.00 0.00 63 1013.0
20260502211557 76 222 7.0 3.5 0.00 0.00 0.00 62 1013.0
20260502210556 76 222 7.0 3.5 0.00 0.00 0.00 62 1013.0
20260502205555 76 222 7.0 3.5 0.00 0.00 0.00 62 1013.0
20260502204555 76 222 7.0 3.5 0.00 0.00 0.00 61 1013.0
20260502203554 76 222 7.0 3.5 0.00 0.00 0.00 61 1014.0
20260502202553 76 219 8.7 5.2 0.00 0.00 0.00 58 1013.0
20260502201553 76 219 8.7 5.2 0.00 0.00 0.00 58 1014.0
20260502200552 78 219 8.7 5.2 0.00 0.00 0.00 58 1014.0
20260502195552 78 219 8.7 5.2 0.00 0.00 0.00 58 1014.0
20260502194551 78 219 8.7 5.2 0.00 0.00 0.00 57 1014.0
20260502193550 78 219 8.7 5.2 0.00 0.00 0.00 57 1014.0
20260502192550 78 219 8.7 7.0 0.00 0.00 0.00 54 1014.0
20260502191549 78 219 8.7 7.0 0.00 0.00 0.00 54 1014.0
20260502190548 78 219 8.7 7.0 0.00 0.00 0.00 54 1014.0
20260502185548 78 219 8.7 7.0 0.00 0.00 0.00 53 1014.0